Weather History for North Bend, OR

Change the Weather History Date:

Wednesday, January 16, 2013

  Actual Average Record
Temperature  
Mean Temperature 43 °F 46 °F  
Max Temperature 57 °F 52 °F 69 °F (1985)
Min Temperature 28 °F 40 °F 23 °F (1917)
Degree Days  
Heating Degree Days 22 19  
Month to date heating degree days 336 306  
Since 1 July heating degree days 2211 2367  
Cooling Degree Days 0 0  
Month to date cooling degree days 0 0  
Year to date cooling degree days 0 0  
Moisture  
Dew Point 36 °F    
Average Humidity 86    
Maximum Humidity 100    
Minimum Humidity 51    
Precipitation  
Precipitation 0.00 in 0.34 in 1.70 in (1974)
Month to date precipitation 1.47 5.61  
Year to date precipitation 1.47 5.61  
Sea Level Pressure  
Sea Level Pressure 30.46 in    
Wind  
Wind Speed 1 mph (NE)    
Max Wind Speed 7 mph    
Max Gust Speed -    
Visibility 9 miles    
Events      
T = Trace of Precipitation, MM = Missing Value Source: NWS Daily Summary

Daily Weather History Graph

Daily Weather History Graph

Search for Another Location

Airport:

Trip Planner

Search our weather history database for the weather conditions in past years. The results will help you decide how hot, cold, wet, or windy it might be!

Date:

Astronomy

Jan. 16, 2013 Rise Set
Actual Time 7:45 AM PST 5:08 PM PST
Civil Twilight 7:14 AM PST 5:39 PM PST
Nautical Twilight 6:39 AM PST 6:15 PM PST
Astronomical Twilight 6:04 AM PST 6:49 PM PST
Moon 10:14 AM PST (1/16) 11:17 PM PST (1/16)
Length of Visible Light 10h 25m
Length of Day
9h 22m
Waxing Crescent, 29% of the Moon is Illuminated
Jan 16
Waxing Crescent
Jan 18
First Quarter
Jan 26
Full
Feb 3
Last Quarter
Feb 9
New

Hourly Weather History & Observations

Time (PST) Temp. Windchill Dew Point Humidity Pressure Visibility Wind Dir Wind Speed Gust Speed Precip Events Conditions
12:15 AM 30.2 °F - 28.4 °F 93% 30.55 in 5.0 mi Calm Calm - N/A   Clear
12:35 AM 30.2 °F - 30.2 °F 100% 30.55 in 5.0 mi Calm Calm - N/A   Clear
12:55 AM 28.4 °F - 28.4 °F 100% 30.55 in 5.0 mi Calm Calm - N/A   Clear
1:15 AM 30.2 °F - 30.2 °F 100% 30.55 in 10.0 mi Calm Calm - N/A   Clear
1:35 AM 30.2 °F - 28.4 °F 93% 30.54 in 1.8 mi Calm Calm - N/A   Clear
1:55 AM 30.2 °F - 30.2 °F 100% 30.54 in 7.0 mi Calm Calm - N/A   Clear
2:15 AM 30.2 °F - 28.4 °F 93% 30.55 in 5.0 mi Calm Calm - N/A   Clear
2:35 AM 30.2 °F - 30.2 °F 100% 30.54 in 9.0 mi Calm Calm - N/A   Clear
2:55 AM 30.2 °F - 30.2 °F 100% 30.54 in 8.0 mi Calm Calm - N/A   Clear
3:15 AM 30.2 °F - 30.2 °F 100% 30.54 in 1.8 mi Calm Calm - N/A   Clear
3:35 AM 28.4 °F - 28.4 °F 100% 30.54 in 4.0 mi Calm Calm - N/A   Clear
3:55 AM 28.4 °F - 28.4 °F 100% 30.53 in 9.0 mi Calm Calm - N/A   Clear
4:35 AM 30.2 °F - 30.2 °F 100% 30.52 in 5.0 mi Calm Calm - N/A   Clear
4:55 AM 30.2 °F - 28.4 °F 93% 30.52 in 6.0 mi Calm Calm - N/A   Clear
5:15 AM 28.4 °F - 28.4 °F 100% 30.51 in 4.0 mi Calm Calm - N/A   Clear
5:35 AM 30.2 °F 25.4 °F 28.4 °F 93% 30.51 in 10.0 mi NNE 4.6 mph - N/A   Clear
5:55 AM 32.0 °F 25.6 °F 32.0 °F 100% 30.51 in 10.0 mi NNE 6.9 mph - N/A   Clear
6:15 AM 32.0 °F 28.7 °F 32.0 °F 100% 30.51 in 10.0 mi NNE 3.5 mph - N/A   Clear
6:35 AM 32.0 °F - 32.0 °F 100% 30.51 in 10.0 mi Calm Calm - N/A   Clear
6:55 AM 32.0 °F - 32.0 °F 100% 30.51 in 10.0 mi Calm Calm - N/A   Clear
7:15 AM 32.0 °F - 32.0 °F 100% 30.51 in 10.0 mi Calm Calm - N/A   Clear
7:35 AM 32.0 °F 28.7 °F 30.2 °F 93% 30.52 in 10.0 mi North 3.5 mph - N/A   Clear
7:55 AM 32.0 °F 26.4 °F 32.0 °F 100% 30.52 in 10.0 mi NNE 5.8 mph - N/A   Clear
8:15 AM 33.8 °F - 33.8 °F 100% 30.52 in 10.0 mi Calm Calm - N/A   Clear
8:35 AM 33.8 °F 30.8 °F 33.8 °F 100% 30.52 in 10.0 mi ESE 3.5 mph - N/A   Clear
8:55 AM 35.6 °F - 33.8 °F 93% 30.52 in 10.0 mi Calm Calm - N/A   Clear
9:15 AM 39.2 °F - 37.4 °F 93% 30.52 in 10.0 mi Calm Calm - N/A   Clear
9:35 AM 39.2 °F - 39.2 °F 100% 30.51 in 10.0 mi Calm Calm - N/A   Clear
9:55 AM 42.8 °F 41.1 °F 39.2 °F 87% 30.51 in 10.0 mi East 3.5 mph - N/A   Clear
10:15 AM 42.8 °F 40.1 °F 39.2 °F 87% 30.51 in 10.0 mi NNE 4.6 mph - N/A   Clear
10:35 AM 42.8 °F 40.1 °F 39.2 °F 87% 30.51 in 10.0 mi North 4.6 mph - N/A   Clear
10:55 AM 44.6 °F - 39.2 °F 81% 30.51 in 10.0 mi Calm Calm - N/A   Clear
11:15 AM 46.4 °F - 41.0 °F 81% 30.49 in 10.0 mi Calm Calm - N/A   Clear
11:35 AM 48.2 °F - 39.2 °F 71% 30.48 in 10.0 mi Calm Calm - N/A   Clear
11:55 AM 50.0 °F - 37.4 °F 62% 30.47 in 10.0 mi Calm Calm - N/A   Clear
12:15 PM 51.8 °F - 39.2 °F 62% 30.45 in 10.0 mi Calm Calm - N/A   Clear
12:35 PM 53.6 °F - 39.2 °F 58% 30.44 in 10.0 mi Calm Calm - N/A   Clear
12:55 PM 53.6 °F - 39.2 °F 58% 30.43 in 10.0 mi NNW 3.5 mph - N/A   Clear
1:15 PM 55.4 °F - 41.0 °F 58% 30.43 in 10.0 mi North 3.5 mph - N/A   Clear
1:35 PM 55.4 °F - 39.2 °F 54% 30.42 in 10.0 mi NW 4.6 mph - N/A   Clear
1:55 PM 57.2 °F - 39.2 °F 51% 30.41 in 10.0 mi Calm Calm - N/A   Clear
2:15 PM 57.2 °F - 41.0 °F 55% 30.41 in 10.0 mi Calm Calm - N/A   Clear
2:35 PM 57.2 °F - 41.0 °F 55% 30.41 in 10.0 mi Calm Calm - N/A   Clear
2:55 PM 57.2 °F - 41.0 °F 55% 30.41 in 10.0 mi Calm Calm - N/A   Clear
3:15 PM 57.2 °F - 41.0 °F 55% 30.41 in 10.0 mi North 3.5 mph - N/A   Clear
3:55 PM 57.2 °F - 39.2 °F 51% 30.41 in 10.0 mi Calm Calm - N/A   Clear
4:15 PM 55.4 °F - 39.2 °F 54% 30.40 in 10.0 mi Calm Calm - N/A   Clear
4:35 PM 55.4 °F - 39.2 °F 54% 30.40 in 10.0 mi Calm Calm - N/A   Clear
4:55 PM 53.6 °F - 39.2 °F 58% 30.40 in 10.0 mi Calm Calm - N/A   Clear
5:15 PM 50.0 °F - 39.2 °F 66% 30.40 in 10.0 mi Calm Calm - N/A   Clear
5:35 PM 46.4 °F - 39.2 °F 76% 30.40 in 10.0 mi Calm Calm - N/A   Clear
5:55 PM 46.4 °F - 42.8 °F 87% 30.40 in 10.0 mi Calm Calm - N/A   Clear
6:15 PM 42.8 °F - 41.0 °F 93% 30.41 in 10.0 mi Calm Calm - N/A   Clear
6:55 PM 42.8 °F 41.1 °F 42.8 °F 100% 30.41 in 10.0 mi North 3.5 mph - N/A   Clear
7:15 PM 41.0 °F - 41.0 °F 100% 30.41 in 10.0 mi Calm Calm - N/A   Clear
7:35 PM 39.2 °F 37.0 °F 39.2 °F 100% 30.40 in 10.0 mi SSE 3.5 mph - N/A   Clear
7:55 PM 39.2 °F - 37.4 °F 93% 30.40 in 10.0 mi Calm Calm - N/A   Clear
8:15 PM 41.0 °F - 39.2 °F 93% 30.40 in 10.0 mi Calm Calm - N/A   Clear
8:35 PM 39.2 °F 37.0 °F 39.2 °F 100% 30.39 in 10.0 mi North 3.5 mph - N/A   Clear
8:55 PM 39.2 °F 37.0 °F 37.4 °F 93% 30.39 in 10.0 mi NNE 3.5 mph - N/A   Clear
9:15 PM 39.2 °F - 39.2 °F 100% 30.39 in 10.0 mi Calm Calm - N/A   Clear
9:35 PM 35.6 °F 31.7 °F 35.6 °F 100% 30.39 in 8.0 mi SSE 4.6 mph - N/A   Clear
9:55 PM 35.6 °F 32.8 °F 33.8 °F 93% 30.39 in 10.0 mi SE 3.5 mph - N/A   Clear
10:15 PM 37.4 °F - 37.4 °F 100% 30.39 in 10.0 mi Calm Calm - N/A   Clear
10:35 PM 37.4 °F - 37.4 °F 100% 30.38 in 10.0 mi Calm Calm - N/A   Clear
10:55 PM 33.8 °F 30.8 °F 32.0 °F 93% 30.38 in 10.0 mi ESE 3.5 mph - N/A   Clear
11:15 PM 37.4 °F 34.9 °F 35.6 °F 93% 30.37 in 10.0 mi East 3.5 mph - N/A   Clear
11:35 PM 37.4 °F 34.9 °F 35.6 °F 93% 30.37 in 10.0 mi NE 3.5 mph - N/A   Clear
11:55 PM 35.6 °F - 33.8 °F 93% 30.37 in 10.0 mi Calm Calm - N/A   Clear